Location: Corte Bragagnani
(45.3000°N, 11.1000°E)
Time: 03:20:15
(UTC+00:00)

MetOp-A - Visible Passes

Search period start: 09 August 2020 00:00
Search period end: 19 August 2020 00:00
Orbit: 819 x 821 km, 98.5° (Epoch: 08 August)

Date Brightness Start Highest point End Pass type
(mag) Time Alt. Az. Time Alt. Az. Time Alt. Az.
09 Aug 6.4 20:30:44 10° SW 20:34:37 20° W 20:38:33 10° NW visible
10 Aug 5.8 20:09:03 10° SSW 20:13:42 30° W 20:18:24 10° NW visible
11 Aug 5.2 19:47:45 10° S 19:52:51 45° W 19:57:59 10° NNW visible
12 Aug 4.5 19:26:44 10° S 19:32:03 68° WSW 19:37:24 10° NNW visible
13 Aug 4.2 19:05:59 10° SSE 19:11:19 82° ENE 19:16:43 10° NNW visible
13 Aug 6.7 20:49:19 10° WSW 20:52:05 14° W 20:54:51 10° WNW visible
14 Aug 6.3 20:27:04 10° SW 20:31:06 21° W 20:35:09 10° NW visible
15 Aug 5.7 20:05:27 10° SSW 20:10:11 32° W 20:14:58 10° NNW visible
16 Aug 5.0 19:44:12 10° S 19:49:21 48° W 19:54:32 10° NNW visible
17 Aug 4.4 19:23:13 10° S 19:28:33 72° WSW 19:33:56 10° NNW visible
18 Aug 4.1 19:02:30 10° SSE 19:07:50 78° ENE 19:13:12 10° N visible
18 Aug 6.7 20:45:32 10° WSW 20:48:32 15° W 20:51:34 10° NW visible
